This is the latest recevied weather packets stored in our database for station/object GUNLAK-WX. If no packets are shown the sender has not sent any weather packets the latest 1 day(s).
| Time | Temp. | Humidity | Pressure | Rain* | Wind** | Luminosity | Snow |
|---|---|---|---|---|---|---|---|
| 1778049094 | 6.11° C | 73% | 983 hPa | 0 mm | - | - | - |
| 1778048176 | 6.11° C | 73% | 983 hPa | 0 mm | - | - | - |
| 1778047327 | 6.11° C | 73% | 983 hPa | 0 mm | - | - | - |
| 1778042777 | 7.22° C | 65% | 984 hPa | 0 mm | - | - | - |
| 1778041892 | 7.22° C | 71% | 983.5 hPa | 0 mm | - | - | - |
| 1778040976 | 7.22° C | 71% | 983.4 hPa | 0 mm | - | - | - |
| 1778040119 | 7.22° C | 71% | 983.4 hPa | 0 mm | - | - | - |
| 1778039174 | 7.22° C | 64% | 983.1 hPa | 0 mm | - | - | - |
| 1778037376 | 7.78° C | 59% | 983 hPa | 0 mm | - | - | - |
| 1778036524 | 7.78° C | 59% | 983 hPa | 0 mm | - | - | - |
| 1778035575 | 7.78° C | 51% | 983.2 hPa | 0 mm | - | - | - |
| 1778034693 | 7.78° C | 49% | 983.2 hPa | 0 mm | - | - | - |
| 1778033775 | 8.89° C | 49% | 983.3 hPa | 0 mm | - | - | - |
| 1778031975 | 9.44° C | 44% | 982.8 hPa | 0 mm | - | - | - |
| 1778031097 | 9.44° C | 44% | 982.8 hPa | 0 mm | - | - | - |
| 1778030174 | 8.89° C | 44% | 982.7 hPa | 0 mm | - | - | - |
| 1778028374 | 8.89° C | 36% | 982.7 hPa | 0 mm | - | - | - |
| 1778027488 | 10° C | 35% | 983.2 hPa | 0 mm | - | - | - |
| 1778026574 | 10° C | 35% | 983.2 hPa | 0 mm | - | - | - |
| 1778023893 | 11.11° C | 33% | 983 hPa | 0 mm | - | - | - |
| 1778019375 | 12.22° C | 36% | 983.1 hPa | 0 mm | - | - | - |
| 1778016695 | 11.67° C | 37% | 982.7 hPa | 0 mm | - | - | - |
| 1778015774 | 12.22° C | 37% | 982.7 hPa | 0 mm | - | - | - |
| 1778010375 | 12.78° C | 33% | 982 hPa | 0 mm | - | - | - |
| 1778008577 | 12.78° C | 33% | 982 hPa | 0 mm | - | - | - |
* Rain latest hour (hover to see other rain measurements)
** Current wind speed in m/s (hover to see current wind gust speed)